Time,TemperatureF,DewpointF,PressureIn,WindDirection,WindDirectionDegrees,WindSpeedMPH,WindSpeedGustMPH,Humidity,HourlyPrecipIn,Conditions,Clouds,dailyrainin,SoftwareType,DateUTC
2013-03-05 00:00:00,47.4,43.1,30.16,NW,304,0.0,0.0,85,0.00,,,0.00,Wunderground v.1.13,2013-03-05 05:00:00,
2013-03-05 00:02:00,47.5,43.2,30.16,NW,304,0.0,0.0,85,0.00,,,0.00,Wunderground v.1.13,2013-03-05 05:02:00,
2013-03-05 00:06:00,47.5,43.2,30.16,NW,304,0.0,0.0,85,0.00,,,0.00,Wunderground v.1.13,2013-03-05 05:06:00,
2013-03-05 00:12:00,47.7,43.1,30.16,NW,304,0.0,0.0,84,0.00,,,0.00,Wunderground v.1.13,2013-03-05 05:12:00,
2013-03-05 00:18:00,47.8,43.2,30.15,NW,304,0.0,0.0,84,0.00,,,0.00,Wunderground v.1.13,2013-03-05 05:18:00,
2013-03-05 00:24:00,47.9,43.3,30.15,NW,304,0.0,0.0,84,0.00,,,0.00,Wunderground v.1.13,2013-03-05 05:24:00,
2013-03-05 00:30:00,48.1,43.2,30.15,NW,304,0.0,0.0,83,0.00,,,0.00,Wunderground v.1.13,2013-03-05 05:30:00,
2013-03-05 00:36:00,48.1,43.2,30.15,NW,304,0.0,0.0,83,0.00,,,0.00,Wunderground v.1.13,2013-03-05 05:36:00,
2013-03-05 00:42:00,48.1,43.2,30.15,NW,304,0.0,0.0,83,0.00,,,0.00,Wunderground v.1.13,2013-03-05 05:42:00,
2013-03-05 00:44:00,48.1,43.2,30.15,NW,304,0.0,0.0,83,0.00,,,0.00,Wunderground v.1.13,2013-03-05 05:44:00,
2013-03-05 00:50:00,48.1,43.2,30.15,NW,304,0.0,0.0,83,0.00,,,0.00,Wunderground v.1.13,2013-03-05 05:50:00,
2013-03-05 00:56:00,48.1,43.2,30.14,NW,304,0.0,0.0,83,0.00,,,0.00,Wunderground v.1.13,2013-03-05 05:56:00,
2013-03-05 01:02:00,48.2,43.3,30.15,NW,304,0.0,0.0,83,0.00,,,0.00,Wunderground v.1.13,2013-03-05 06:02:00,
2013-03-05 01:08:00,48.1,43.2,30.15,NW,304,0.0,0.0,83,0.00,,,0.00,Wunderground v.1.13,2013-03-05 06:08:00,
2013-03-05 01:14:00,47.8,42.9,30.15,NW,304,0.0,0.0,83,0.00,,,0.00,Wunderground v.1.13,2013-03-05 06:14:00,
2013-03-05 01:20:00,47.4,42.5,30.15,NW,304,0.0,0.0,83,0.00,,,0.00,Wunderground v.1.13,2013-03-05 06:20:00,
2013-03-05 01:25:00,47.1,42.2,30.15,NW,304,0.0,0.0,83,0.00,,,0.00,Wunderground v.1.13,2013-03-05 06:25:00,
2013-03-05 01:32:00,46.8,42.2,30.15,NW,304,0.0,0.0,84,0.00,,,0.00,Wunderground v.1.13,2013-03-05 06:32:00,
2013-03-05 01:38:00,46.7,42.1,30.14,NW,304,0.0,0.0,84,0.00,,,0.00,Wunderground v.1.13,2013-03-05 06:38:00,
2013-03-05 01:44:00,46.8,42.5,30.14,NW,304,0.0,0.0,85,0.00,,,0.00,Wunderground v.1.13,2013-03-05 06:44:00,
2013-03-05 01:50:00,47.2,42.9,30.14,NW,304,0.0,0.0,85,0.00,,,0.00,Wunderground v.1.13,2013-03-05 06:50:00,
2013-03-05 01:56:00,47.4,42.8,30.14,NW,304,0.0,0.0,84,0.00,,,0.00,Wunderground v.1.13,2013-03-05 06:56:00,
2013-03-05 02:02:00,47.7,43.1,30.14,NW,304,0.0,0.0,84,0.00,,,0.00,Wunderground v.1.13,2013-03-05 07:02:00,
2013-03-05 02:08:00,47.7,43.1,30.14,NW,304,0.0,0.0,84,0.00,,,0.00,Wunderground v.1.13,2013-03-05 07:08:00,
2013-03-05 02:14:00,47.5,42.9,30.14,NW,304,0.0,0.0,84,0.00,,,0.00,Wunderground v.1.13,2013-03-05 07:14:00,
2013-03-05 02:20:00,47.2,42.6,30.14,NW,304,0.0,0.0,84,0.00,,,0.00,Wunderground v.1.13,2013-03-05 07:20:00,
2013-03-05 02:26:00,46.8,42.2,30.14,NW,304,0.0,0.0,84,0.00,,,0.00,Wunderground v.1.13,2013-03-05 07:26:00,
2013-03-05 02:32:00,46.4,41.8,30.14,NW,304,0.0,0.0,84,0.00,,,0.00,Wunderground v.1.13,2013-03-05 07:32:00,
2013-03-05 02:38:00,46.1,41.8,30.14,NW,304,0.0,0.0,85,0.00,,,0.00,Wunderground v.1.13,2013-03-05 07:38:00,
2013-03-05 02:44:00,45.9,41.9,30.14,NW,304,0.0,0.0,86,0.00,,,0.00,Wunderground v.1.13,2013-03-05 07:44:00,
2013-03-05 02:50:00,45.6,41.7,30.14,NW,304,0.0,0.0,86,0.00,,,0.00,Wunderground v.1.13,2013-03-05 07:50:00,
2013-03-05 02:56:00,45.4,41.5,30.14,NW,304,0.0,0.0,86,0.00,,,0.00,Wunderground v.1.13,2013-03-05 07:56:00,
2013-03-05 03:02:00,45.2,41.3,30.14,NW,304,0.0,0.0,86,0.00,,,0.00,Wunderground v.1.13,2013-03-05 08:02:00,
2013-03-05 03:08:00,45.1,41.5,30.14,NW,304,0.0,0.0,87,0.00,,,0.00,Wunderground v.1.13,2013-03-05 08:08:00,
2013-03-05 03:14:00,45.0,41.4,30.14,NW,304,0.0,0.0,87,0.00,,,0.00,Wunderground v.1.13,2013-03-05 08:14:00,
2013-03-05 03:20:00,44.7,41.1,30.14,NW,304,0.0,0.0,87,0.00,,,0.00,Wunderground v.1.13,2013-03-05 08:20:00,
2013-03-05 03:26:00,44.5,41.2,30.14,NW,304,0.0,0.0,88,0.00,,,0.00,Wunderground v.1.13,2013-03-05 08:26:00,
2013-03-05 03:32:00,44.3,41.0,30.13,NW,304,0.0,0.0,88,0.00,,,0.00,Wunderground v.1.13,2013-03-05 08:32:00,
2013-03-05 03:38:00,44.2,40.9,30.13,NW,304,0.0,0.0,88,0.00,,,0.00,Wunderground v.1.13,2013-03-05 08:38:00,
2013-03-05 03:44:00,44.1,40.8,30.13,NW,304,0.0,0.0,88,0.00,,,0.00,Wunderground v.1.13,2013-03-05 08:44:00,
2013-03-05 03:50:00,44.1,41.1,30.13,NW,304,0.0,0.0,89,0.00,,,0.00,Wunderground v.1.13,2013-03-05 08:50:00,
2013-03-05 03:56:00,44.0,41.0,30.13,NW,304,0.0,0.0,89,0.00,,,0.00,Wunderground v.1.13,2013-03-05 08:56:00,
2013-03-05 04:02:00,43.9,40.9,30.13,NW,304,0.0,0.0,89,0.00,,,0.00,Wunderground v.1.13,2013-03-05 09:02:00,
2013-03-05 04:08:00,43.8,40.8,30.13,NW,304,0.0,0.0,89,0.00,,,0.00,Wunderground v.1.13,2013-03-05 09:08:00,
2013-03-05 04:14:00,43.7,40.7,30.13,NW,304,0.0,0.0,89,0.00,,,0.00,Wunderground v.1.13,2013-03-05 09:14:00,
2013-03-05 04:20:00,43.9,41.2,30.13,NW,304,0.0,0.0,90,0.00,,,0.00,Wunderground v.1.13,2013-03-05 09:20:00,
2013-03-05 04:26:00,44.0,41.3,30.13,NW,304,0.0,0.0,90,0.00,,,0.00,Wunderground v.1.13,2013-03-05 09:26:00,
2013-03-05 04:32:00,44.1,41.6,30.13,NW,304,0.0,0.0,91,0.00,,,0.00,Wunderground v.1.13,2013-03-05 09:32:00,
2013-03-05 04:38:00,44.4,41.7,30.13,NW,304,0.0,0.0,90,0.00,,,0.00,Wunderground v.1.13,2013-03-05 09:38:00,
2013-03-05 04:44:00,44.6,42.1,30.12,NW,304,0.0,0.0,91,0.00,,,0.00,Wunderground v.1.13,2013-03-05 09:44:00,
2013-03-05 04:50:00,44.8,42.0,30.13,NW,304,0.0,0.0,90,0.00,,,0.00,Wunderground v.1.13,2013-03-05 09:50:00,
2013-03-05 04:56:00,44.9,42.1,30.13,NW,304,0.0,0.0,90,0.00,,,0.00,Wunderground v.1.13,2013-03-05 09:56:00,
2013-03-05 05:02:00,44.9,42.1,30.12,NW,304,0.0,0.0,90,0.00,,,0.00,Wunderground v.1.13,2013-03-05 10:02:00,
2013-03-05 05:08:00,45.4,42.6,30.13,NW,304,0.0,0.0,90,0.00,,,0.00,Wunderground v.1.13,2013-03-05 10:08:00,
2013-03-05 05:14:00,45.7,42.6,30.13,NW,304,0.0,0.0,89,0.00,,,0.00,Wunderground v.1.13,2013-03-05 10:14:00,
2013-03-05 05:20:00,46.1,43.0,30.13,NW,304,0.0,0.0,89,0.00,,,0.00,Wunderground v.1.13,2013-03-05 10:20:00,
2013-03-05 05:26:00,46.6,43.5,30.13,NW,304,0.0,0.0,89,0.00,,,0.00,Wunderground v.1.13,2013-03-05 10:26:00,
2013-03-05 05:32:00,47.2,43.8,30.13,NW,304,0.0,0.0,88,0.00,,,0.00,Wunderground v.1.13,2013-03-05 10:32:00,
2013-03-05 05:38:00,47.6,43.6,30.13,SSW,202,0.0,0.0,86,0.00,,,0.00,Wunderground v.1.13,2013-03-05 10:38:00,
2013-03-05 05:43:00,47.8,43.5,30.13,SSW,202,0.0,0.0,85,0.00,,,0.00,Wunderground v.1.13,2013-03-05 10:43:00,
2013-03-05 05:50:00,47.9,43.9,30.14,SSW,202,0.0,0.0,86,0.00,,,0.00,Wunderground v.1.13,2013-03-05 10:50:00,
2013-03-05 05:56:00,48.1,44.1,30.14,SSW,202,0.0,0.0,86,0.00,,,0.00,Wunderground v.1.13,2013-03-05 10:56:00,
2013-03-05 06:02:00,48.1,44.1,30.14,SSW,202,0.0,0.0,86,0.00,,,0.00,Wunderground v.1.13,2013-03-05 11:02:00,
2013-03-05 06:08:00,48.1,44.1,30.14,SSW,202,0.0,0.0,86,0.00,,,0.00,Wunderground v.1.13,2013-03-05 11:08:00,
2013-03-05 06:14:00,48.2,44.2,30.15,SSW,202,0.0,0.0,86,0.00,,,0.00,Wunderground v.1.13,2013-03-05 11:14:00,
2013-03-05 06:20:00,48.0,43.7,30.15,SSW,202,0.0,0.0,85,0.00,,,0.00,Wunderground v.1.13,2013-03-05 11:20:00,
2013-03-05 06:26:00,47.5,43.2,30.15,SSW,202,0.0,0.0,85,0.00,,,0.00,Wunderground v.1.13,2013-03-05 11:26:00,
2013-03-05 06:32:00,47.0,42.7,30.16,SSW,202,0.0,0.0,85,0.00,,,0.00,Wunderground v.1.13,2013-03-05 11:32:00,
2013-03-05 06:38:00,46.7,42.7,30.16,SSW,202,0.0,0.0,86,0.00,,,0.00,Wunderground v.1.13,2013-03-05 11:38:00,
2013-03-05 06:44:00,46.4,42.4,30.15,SSW,202,0.0,0.0,86,0.00,,,0.00,Wunderground v.1.13,2013-03-05 11:44:00,
2013-03-05 06:50:00,46.2,42.5,30.16,SSW,202,0.0,0.0,87,0.00,,,0.00,Wunderground v.1.13,2013-03-05 11:50:00,
2013-03-05 06:56:00,46.3,42.9,30.16,SSW,202,0.0,0.0,88,0.00,,,0.00,Wunderground v.1.13,2013-03-05 11:56:00,
2013-03-05 07:02:00,46.2,42.8,30.16,SSW,202,0.0,0.0,88,0.00,,,0.00,Wunderground v.1.13,2013-03-05 12:02:00,
2013-03-05 07:08:00,46.2,42.8,30.16,SSW,202,0.0,0.0,88,0.00,,,0.00,Wunderground v.1.13,2013-03-05 12:08:00,
2013-03-05 07:14:00,46.2,42.8,30.16,SSW,202,0.0,0.0,88,0.00,,,0.00,Wunderground v.1.13,2013-03-05 12:14:00,
2013-03-05 07:20:00,46.2,43.1,30.16,SSW,202,0.0,0.0,89,0.00,,,0.00,Wunderground v.1.13,2013-03-05 12:20:00,
2013-03-05 07:26:00,46.5,43.7,30.16,SSW,202,0.0,0.0,90,0.00,,,0.00,Wunderground v.1.13,2013-03-05 12:26:00,
2013-03-05 07:32:00,47.0,44.2,30.16,SSW,202,0.0,0.0,90,0.00,,,0.00,Wunderground v.1.13,2013-03-05 12:32:00,
2013-03-05 07:38:00,47.8,45.3,30.16,SSW,202,0.0,0.0,91,0.00,,,0.00,Wunderground v.1.13,2013-03-05 12:38:00,
2013-03-05 07:43:00,49.1,46.6,30.16,SSW,202,0.0,0.0,91,0.00,,,0.00,Wunderground v.1.13,2013-03-05 12:43:00,
2013-03-05 07:50:00,50.4,47.3,30.16,SSW,202,0.0,0.0,89,0.00,,,0.00,Wunderground v.1.13,2013-03-05 12:50:00,
2013-03-05 07:56:00,51.4,47.4,30.16,SSW,202,0.0,0.0,86,0.00,,,0.00,Wunderground v.1.13,2013-03-05 12:56:00,
2013-03-05 08:02:00,52.3,47.6,30.17,SSW,202,0.0,0.0,84,0.00,,,0.00,Wunderground v.1.13,2013-03-05 13:02:00,
2013-03-05 08:08:00,53.1,48.1,30.16,SSW,202,0.0,0.0,83,0.00,,,0.00,Wunderground v.1.13,2013-03-05 13:08:00,
2013-03-05 08:14:00,53.9,48.2,30.16,SSW,200,0.0,0.0,81,0.00,,,0.00,Wunderground v.1.13,2013-03-05 13:14:00,
2013-03-05 08:20:00,54.7,48.6,30.18,SSW,200,0.0,0.0,80,0.00,,,0.00,Wunderground v.1.13,2013-03-05 13:20:00,
2013-03-05 08:26:00,55.3,48.9,30.18,South,190,0.0,0.0,79,0.00,,,0.00,Wunderground v.1.13,2013-03-05 13:26:00,
2013-03-05 08:32:00,55.9,48.8,30.17,South,175,0.0,0.0,77,0.00,,,0.00,Wunderground v.1.13,2013-03-05 13:32:00,
2013-03-05 08:38:00,56.5,49.0,30.17,South,176,0.0,0.0,76,0.00,,,0.00,Wunderground v.1.13,2013-03-05 13:38:00,
2013-03-05 08:44:00,57.1,49.6,30.18,South,176,0.0,0.0,76,0.00,,,0.00,Wunderground v.1.13,2013-03-05 13:44:00,
2013-03-05 08:50:00,57.7,49.8,30.18,South,176,0.0,0.0,75,0.00,,,0.00,Wunderground v.1.13,2013-03-05 13:50:00,
2013-03-05 08:56:00,58.1,49.9,30.18,South,175,0.0,0.0,74,0.00,,,0.00,Wunderground v.1.13,2013-03-05 13:56:00,
2013-03-05 09:02:00,58.4,49.8,30.18,South,172,0.0,0.0,73,0.00,,,0.00,Wunderground v.1.13,2013-03-05 14:02:00,
2013-03-05 09:08:00,59.0,50.4,30.18,South,172,0.0,0.0,73,0.00,,,0.00,Wunderground v.1.13,2013-03-05 14:08:00,
2013-03-05 09:14:00,59.5,50.8,30.18,South,172,0.0,0.0,73,0.00,,,0.00,Wunderground v.1.13,2013-03-05 14:14:00,
2013-03-05 09:20:00,60.0,50.9,30.17,South,172,0.0,5.0,72,0.00,,,0.00,Wunderground v.1.13,2013-03-05 14:20:00,
2013-03-05 09:26:00,60.4,51.7,30.18,South,178,0.0,4.0,73,0.00,,,0.00,Wunderground v.1.13,2013-03-05 14:26:00,
2013-03-05 09:32:00,61.2,52.1,30.18,South,178,0.0,4.0,72,0.00,,,0.00,Wunderground v.1.13,2013-03-05 14:32:00,
2013-03-05 09:38:00,61.7,53.0,30.18,SW,229,0.0,4.0,73,0.00,,,0.00,Wunderground v.1.13,2013-03-05 14:38:00,
2013-03-05 09:44:00,62.2,53.1,30.18,SW,229,0.0,4.0,72,0.00,,,0.00,Wunderground v.1.13,2013-03-05 14:44:00,
2013-03-05 09:50:00,62.7,53.5,30.18,SW,229,0.0,4.0,72,0.00,,,0.00,Wunderground v.1.13,2013-03-05 14:50:00,
2013-03-05 09:56:00,63.3,54.1,30.18,SW,225,0.0,4.0,72,0.00,,,0.00,Wunderground v.1.13,2013-03-05 14:56:00,
2013-03-05 10:01:00,63.4,53.8,30.18,SW,220,0.0,4.0,71,0.00,,,0.00,Wunderground v.1.13,2013-03-05 15:01:00,
2013-03-05 10:08:00,63.7,54.1,30.18,WSW,239,1.0,1.0,71,0.00,,,0.00,Wunderground v.1.13,2013-03-05 15:08:00,
2013-03-05 10:14:00,63.9,55.1,30.17,WSW,238,1.0,4.0,73,0.00,,,0.00,Wunderground v.1.13,2013-03-05 15:14:00,
2013-03-05 10:20:00,64.7,55.8,30.17,West,264,1.0,2.0,73,0.00,,,0.00,Wunderground v.1.13,2013-03-05 15:20:00,
2013-03-05 10:26:00,65.0,56.1,30.17,South,191,1.0,6.0,73,0.00,,,0.00,Wunderground v.1.13,2013-03-05 15:26:00,
2013-03-05 10:32:00,65.6,56.7,30.17,SW,234,2.0,2.0,73,0.00,,,0.00,Wunderground v.1.13,2013-03-05 15:32:00,
2013-03-05 10:38:00,65.8,56.9,30.17,South,188,3.0,8.0,73,0.00,,,0.00,Wunderground v.1.13,2013-03-05 15:38:00,
2013-03-05 10:44:00,66.2,57.3,30.17,SW,234,3.0,3.0,73,0.00,,,0.00,Wunderground v.1.13,2013-03-05 15:44:00,
2013-03-05 10:50:00,66.3,57.0,30.17,SSW,213,3.0,7.0,72,0.00,,,0.00,Wunderground v.1.13,2013-03-05 15:50:00,
2013-03-05 10:56:00,66.2,56.9,30.17,SSW,202,4.0,6.0,72,0.00,,,0.00,Wunderground v.1.13,2013-03-05 15:56:00,
2013-03-05 11:02:00,66.3,57.0,30.17,SW,222,3.0,9.0,72,0.00,,,0.00,Wunderground v.1.13,2013-03-05 16:02:00,
2013-03-05 11:08:00,66.2,56.9,30.17,SSW,209,3.0,4.0,72,0.00,,,0.00,Wunderground v.1.13,2013-03-05 16:08:00,
2013-03-05 11:14:00,66.6,57.3,30.18,SW,222,1.0,2.0,72,0.00,,,0.00,Wunderground v.1.13,2013-03-05 16:14:00,
2013-03-05 11:20:00,66.8,57.1,30.18,SW,221,2.0,11.0,71,0.00,,,0.00,Wunderground v.1.13,2013-03-05 16:20:00,
2013-03-05 11:26:00,67.4,57.7,30.18,SW,215,4.0,11.0,71,0.00,,,0.00,Wunderground v.1.13,2013-03-05 16:26:00,
2013-03-05 11:32:00,67.9,57.4,30.17,WSW,241,2.0,11.0,69,0.00,,,0.00,Wunderground v.1.13,2013-03-05 16:32:00,
2013-03-05 11:38:00,68.5,57.5,30.17,SSW,204,2.0,11.0,68,0.00,,,0.00,Wunderground v.1.13,2013-03-05 16:38:00,
2013-03-05 11:44:00,68.5,57.5,30.17,SW,217,4.0,11.0,68,0.00,,,0.00,Wunderground v.1.13,2013-03-05 16:44:00,
2013-03-05 11:50:00,68.4,57.8,30.17,SSW,210,3.0,5.0,69,0.00,,,0.00,Wunderground v.1.13,2013-03-05 16:50:00,
2013-03-05 11:56:00,68.8,58.2,30.17,SSW,200,3.0,11.0,69,0.00,,,0.00,Wunderground v.1.13,2013-03-05 16:56:00,
2013-03-05 12:02:00,68.8,57.8,30.17,SW,229,4.0,11.0,68,0.00,,,0.00,Wunderground v.1.13,2013-03-05 17:02:00,
2013-03-05 12:08:00,68.7,57.7,30.17,SSW,202,2.0,3.0,68,0.00,,,0.00,Wunderground v.1.13,2013-03-05 17:08:00,
2013-03-05 12:14:00,69.4,58.0,30.17,SW,226,2.0,7.0,67,0.00,,,0.00,Wunderground v.1.13,2013-03-05 17:14:00,
2013-03-05 12:20:00,69.8,57.9,30.16,SSW,198,3.0,13.0,66,0.00,,,0.00,Wunderground v.1.13,2013-03-05 17:20:00,
2013-03-05 12:26:00,69.8,57.9,30.16,SSW,212,5.0,13.0,66,0.00,,,0.00,Wunderground v.1.13,2013-03-05 17:26:00,
2013-03-05 12:32:00,69.9,58.0,30.15,SSW,194,3.0,13.0,66,0.00,,,0.00,Wunderground v.1.13,2013-03-05 17:32:00,
2013-03-05 12:38:00,70.1,58.2,30.15,SSW,198,2.0,5.0,66,0.00,,,0.00,Wunderground v.1.13,2013-03-05 17:38:00,
2013-03-05 12:44:00,70.0,57.3,30.15,SW,218,4.0,13.0,64,0.00,,,0.00,Wunderground v.1.13,2013-03-05 17:44:00,
2013-03-05 12:50:00,69.8,57.1,30.14,SW,233,4.0,5.0,64,0.00,,,0.00,Wunderground v.1.13,2013-03-05 17:50:00,
2013-03-05 12:56:00,68.8,57.4,30.14,WSW,248,3.0,13.0,67,0.00,,,0.00,Wunderground v.1.13,2013-03-05 17:56:00,
2013-03-05 13:02:00,69.5,57.2,30.14,WSW,250,3.0,11.0,65,0.00,,,0.00,Wunderground v.1.13,2013-03-05 18:02:00,
2013-03-05 13:08:00,69.7,57.4,30.13,West,268,2.0,3.0,65,0.00,,,0.00,Wunderground v.1.13,2013-03-05 18:08:00,
2013-03-05 13:14:00,70.2,57.4,30.13,South,185,2.0,2.0,64,0.00,,,0.00,Wunderground v.1.13,2013-03-05 18:14:00,
2013-03-05 13:20:00,70.6,56.9,30.13,SW,217,4.0,13.0,62,0.00,,,0.00,Wunderground v.1.13,2013-03-05 18:20:00,
2013-03-05 13:26:00,70.5,57.3,30.13,SSW,206,5.0,13.0,63,0.00,,,0.00,Wunderground v.1.13,2013-03-05 18:26:00,
2013-03-05 13:32:00,70.5,57.3,30.13,South,183,5.0,13.0,63,0.00,,,0.00,Wunderground v.1.13,2013-03-05 18:32:00,
2013-03-05 13:38:00,70.8,57.6,30.12,West,271,2.0,13.0,63,0.00,,,0.00,Wunderground v.1.13,2013-03-05 18:38:00,
2013-03-05 13:44:00,70.6,56.5,30.12,SSW,193,2.0,13.0,61,0.00,,,0.00,Wunderground v.1.13,2013-03-05 18:44:00,
2013-03-05 13:50:00,70.4,55.8,30.12,SSW,202,7.0,9.0,60,0.00,,,0.00,Wunderground v.1.13,2013-03-05 18:50:00,
2013-03-05 13:56:00,70.5,56.4,30.11,SSW,196,5.0,13.0,61,0.00,,,0.00,Wunderground v.1.13,2013-03-05 18:56:00,
2013-03-05 14:02:00,71.2,56.6,30.11,SW,217,4.0,13.0,60,0.00,,,0.00,Wunderground v.1.13,2013-03-05 19:02:00,
2013-03-05 14:08:00,71.0,56.4,30.12,SW,227,3.0,4.0,60,0.00,,,0.00,Wunderground v.1.13,2013-03-05 19:08:00,
2013-03-05 14:14:00,71.1,56.5,30.11,SSW,202,3.0,7.0,60,0.00,,,0.00,Wunderground v.1.13,2013-03-05 19:14:00,
2013-03-05 14:20:00,70.9,56.3,30.11,SSW,202,5.0,9.0,60,0.00,,,0.00,Wunderground v.1.13,2013-03-05 19:20:00,
2013-03-05 14:26:00,71.1,56.0,30.11,SSW,202,5.0,14.0,59,0.00,,,0.00,Wunderground v.1.13,2013-03-05 19:26:00,
2013-03-05 14:32:00,70.6,56.9,30.11,SSW,195,4.0,14.0,62,0.00,,,0.00,Wunderground v.1.13,2013-03-05 19:32:00,
2013-03-05 14:38:00,71.3,57.6,30.11,SSW,213,4.0,14.0,62,0.00,,,0.00,Wunderground v.1.13,2013-03-05 19:38:00,
2013-03-05 14:44:00,71.2,57.5,30.11,WSW,250,3.0,14.0,62,0.00,,,0.00,Wunderground v.1.13,2013-03-05 19:44:00,
2013-03-05 14:50:00,71.2,57.5,30.11,SSE,165,2.0,14.0,62,0.00,,,0.00,Wunderground v.1.13,2013-03-05 19:50:00,
2013-03-05 14:56:00,70.9,55.9,30.10,SW,225,3.0,4.0,59,0.00,,,0.00,Wunderground v.1.13,2013-03-05 19:56:00,
2013-03-05 15:02:00,70.5,55.9,30.11,SW,221,4.0,14.0,60,0.00,,,0.00,Wunderground v.1.13,2013-03-05 20:02:00,
2013-03-05 15:08:00,70.7,56.1,30.11,SW,225,2.0,3.0,60,0.00,,,0.00,Wunderground v.1.13,2013-03-05 20:08:00,
2013-03-05 15:14:00,71.0,55.9,30.11,SSW,199,2.0,2.0,59,0.00,,,0.00,Wunderground v.1.13,2013-03-05 20:14:00,
2013-03-05 15:20:00,71.2,57.1,30.11,SW,218,2.0,12.0,61,0.00,,,0.00,Wunderground v.1.13,2013-03-05 20:20:00,
2013-03-05 15:26:00,70.8,56.7,30.11,SW,236,2.0,12.0,61,0.00,,,0.00,Wunderground v.1.13,2013-03-05 20:26:00,
2013-03-05 15:32:00,71.2,57.1,30.11,West,268,1.0,3.0,61,0.00,,,0.00,Wunderground v.1.13,2013-03-05 20:32:00,
2013-03-05 15:38:00,70.7,56.6,30.11,West,273,2.0,12.0,61,0.00,,,0.00,Wunderground v.1.13,2013-03-05 20:38:00,
2013-03-05 15:44:00,70.5,56.4,30.11,WSW,257,3.0,5.0,61,0.00,,,0.00,Wunderground v.1.13,2013-03-05 20:44:00,
2013-03-05 15:50:00,70.3,56.7,30.11,SW,219,4.0,16.0,62,0.00,,,0.00,Wunderground v.1.13,2013-03-05 20:50:00,
2013-03-05 15:56:00,70.2,56.1,30.11,SW,232,4.0,5.0,61,0.00,,,0.00,Wunderground v.1.13,2013-03-05 20:56:00,
2013-03-05 16:02:00,70.1,56.0,30.11,WSW,245,4.0,12.0,61,0.00,,,0.00,Wunderground v.1.13,2013-03-05 21:02:00,
2013-03-05 16:08:00,70.0,56.8,30.11,West,268,3.0,5.0,63,0.00,,,0.00,Wunderground v.1.13,2013-03-05 21:08:00,
2013-03-05 16:14:00,70.1,56.5,30.10,WSW,238,2.0,2.0,62,0.00,,,0.00,Wunderground v.1.13,2013-03-05 21:14:00,
2013-03-05 16:20:00,70.1,56.9,30.11,SW,219,2.0,4.0,63,0.00,,,0.00,Wunderground v.1.13,2013-03-05 21:20:00,
2013-03-05 16:26:00,70.0,56.8,30.10,SW,217,2.0,16.0,63,0.00,,,0.00,Wunderground v.1.13,2013-03-05 21:26:00,
2013-03-05 16:32:00,70.1,57.4,30.10,WSW,253,4.0,4.0,64,0.00,,,0.00,Wunderground v.1.13,2013-03-05 21:32:00,
2013-03-05 16:38:00,69.9,57.2,30.10,WSW,256,3.0,16.0,64,0.00,,,0.00,Wunderground v.1.13,2013-03-05 21:38:00,
2013-03-05 16:44:00,69.3,57.0,30.10,WSW,241,2.0,3.0,65,0.00,,,0.00,Wunderground v.1.13,2013-03-05 21:44:00,
2013-03-05 16:50:00,69.3,57.5,30.10,West,259,2.0,16.0,66,0.00,,,0.00,Wunderground v.1.13,2013-03-05 21:50:00,
2013-03-05 16:56:00,69.2,57.4,30.10,SSW,211,1.0,16.0,66,0.00,,,0.00,Wunderground v.1.13,2013-03-05 21:56:00,
2013-03-05 17:02:00,69.2,57.8,30.10,SW,214,2.0,16.0,67,0.00,,,0.00,Wunderground v.1.13,2013-03-05 22:02:00,
2013-03-05 17:08:00,69.0,57.6,30.10,SSW,199,3.0,3.0,67,0.00,,,0.00,Wunderground v.1.13,2013-03-05 22:08:00,
2013-03-05 17:14:00,68.9,57.9,30.10,SW,225,2.0,3.0,68,0.00,,,0.00,Wunderground v.1.13,2013-03-05 22:14:00,
2013-03-05 17:20:00,69.0,58.0,30.10,SW,227,1.0,7.0,68,0.00,,,0.00,Wunderground v.1.13,2013-03-05 22:20:00,
2013-03-05 17:26:00,68.8,57.8,30.10,SW,217,2.0,7.0,68,0.00,,,0.00,Wunderground v.1.13,2013-03-05 22:26:00,
2013-03-05 17:32:00,68.4,57.8,30.10,West,261,3.0,6.0,69,0.00,,,0.00,Wunderground v.1.13,2013-03-05 22:32:00,
2013-03-05 17:38:00,68.1,57.5,30.10,SSW,213,3.0,7.0,69,0.00,,,0.00,Wunderground v.1.13,2013-03-05 22:38:00,
2013-03-05 17:44:00,68.2,58.0,30.10,SSW,207,1.0,4.0,70,0.00,,,0.00,Wunderground v.1.13,2013-03-05 22:44:00,
2013-03-05 17:50:00,68.0,58.2,30.10,SSW,200,2.0,7.0,71,0.00,,,0.00,Wunderground v.1.13,2013-03-05 22:50:00,
2013-03-05 17:56:00,67.9,58.1,30.10,SSW,200,2.0,7.0,71,0.00,,,0.00,Wunderground v.1.13,2013-03-05 22:56:00,
2013-03-05 18:02:00,67.5,58.2,30.09,SSW,211,2.0,7.0,72,0.00,,,0.00,Wunderground v.1.13,2013-03-05 23:02:00,
2013-03-05 18:08:00,67.2,58.2,30.09,SSW,194,2.0,3.0,73,0.00,,,0.00,Wunderground v.1.13,2013-03-05 23:08:00,
2013-03-05 18:14:00,67.0,58.1,30.09,SSW,209,1.0,1.0,73,0.00,,,0.00,Wunderground v.1.13,2013-03-05 23:14:00,
2013-03-05 18:20:00,66.7,58.1,30.09,South,184,1.0,11.0,74,0.00,,,0.00,Wunderground v.1.13,2013-03-05 23:20:00,
2013-03-05 18:26:00,66.5,58.3,30.09,SSW,207,1.0,11.0,75,0.00,,,0.00,Wunderground v.1.13,2013-03-05 23:26:00,
2013-03-05 18:32:00,66.3,58.1,30.09,SSW,207,1.0,11.0,75,0.00,,,0.00,Wunderground v.1.13,2013-03-05 23:32:00,
2013-03-05 18:38:00,66.1,58.3,30.08,SSW,200,1.0,6.0,76,0.00,,,0.00,Wunderground v.1.13,2013-03-05 23:38:00,
2013-03-05 18:44:00,65.8,58.4,30.08,SSW,200,3.0,11.0,77,0.00,,,0.00,Wunderground v.1.13,2013-03-05 23:44:00,
2013-03-05 18:50:00,65.7,58.3,30.08,SSW,198,2.0,11.0,77,0.00,,,0.00,Wunderground v.1.13,2013-03-05 23:50:00,
2013-03-05 18:56:00,65.6,58.6,30.08,SSW,196,2.0,11.0,78,0.00,,,0.00,Wunderground v.1.13,2013-03-05 23:56:00,
2013-03-05 19:02:00,65.3,58.3,30.07,SSW,196,4.0,4.0,78,0.00,,,0.00,Wunderground v.1.13,2013-03-06 00:02:00,
2013-03-05 19:08:00,65.2,58.5,30.08,South,186,2.0,3.0,79,0.00,,,0.00,Wunderground v.1.13,2013-03-06 00:08:00,
2013-03-05 19:14:00,65.1,58.4,30.07,SSW,205,2.0,2.0,79,0.00,,,0.00,Wunderground v.1.13,2013-03-06 00:14:00,
2013-03-05 19:20:00,65.0,58.7,30.07,SSW,206,3.0,11.0,80,0.00,,,0.00,Wunderground v.1.13,2013-03-06 00:20:00,
2013-03-05 19:26:00,65.0,58.7,30.07,SSW,199,2.0,11.0,80,0.00,,,0.00,Wunderground v.1.13,2013-03-06 00:26:00,
2013-03-05 19:32:00,64.9,58.9,30.07,SSW,198,1.0,11.0,81,0.00,,,0.00,Wunderground v.1.13,2013-03-06 00:32:00,
2013-03-05 19:38:00,64.8,58.8,30.07,SW,218,0.0,11.0,81,0.00,,,0.00,Wunderground v.1.13,2013-03-06 00:38:00,
2013-03-05 19:44:00,64.7,58.7,30.07,SW,217,0.0,11.0,81,0.00,,,0.00,Wunderground v.1.13,2013-03-06 00:44:00,
2013-03-05 19:50:00,64.5,58.9,30.07,SSW,211,0.0,11.0,82,0.00,,,0.00,Wunderground v.1.13,2013-03-06 00:50:00,
2013-03-05 19:56:00,64.4,58.8,30.07,SSW,210,1.0,11.0,82,0.00,,,0.00,Wunderground v.1.13,2013-03-06 00:56:00,
2013-03-05 20:02:00,64.3,59.0,30.07,SSW,202,3.0,11.0,83,0.00,,,0.00,Wunderground v.1.13,2013-03-06 01:02:00,
2013-03-05 20:08:00,64.2,59.3,30.07,SSW,199,4.0,4.0,84,0.00,,,0.00,Wunderground v.1.13,2013-03-06 01:08:00,
2013-03-05 20:14:00,64.1,59.2,30.07,SSW,201,4.0,4.0,84,0.00,,,0.00,Wunderground v.1.13,2013-03-06 01:14:00,
2013-03-05 20:20:00,64.1,59.5,30.07,SSW,203,3.0,5.0,85,0.00,,,0.00,Wunderground v.1.13,2013-03-06 01:20:00,
2013-03-05 20:26:00,64.1,59.5,30.07,SSW,198,4.0,7.0,85,0.00,,,0.00,Wunderground v.1.13,2013-03-06 01:26:00,
2013-03-05 20:32:00,64.1,59.8,30.06,SSW,200,5.0,7.0,86,0.00,,,0.00,Wunderground v.1.13,2013-03-06 01:32:00,
2013-03-05 20:38:00,64.1,59.8,30.06,SSW,210,6.0,10.0,86,0.00,,,0.00,Wunderground v.1.13,2013-03-06 01:38:00,
2013-03-05 20:44:00,64.0,59.7,30.06,SSW,203,6.0,8.0,86,0.00,,,0.00,Wunderground v.1.13,2013-03-06 01:44:00,
2013-03-05 20:50:00,64.1,60.2,30.06,SSW,201,6.0,6.0,87,0.00,,,0.00,Wunderground v.1.13,2013-03-06 01:50:00,
2013-03-05 20:56:00,64.0,60.1,30.07,SSW,196,5.0,9.0,87,0.00,,,0.00,Wunderground v.1.13,2013-03-06 01:56:00,
2013-03-05 21:02:00,64.1,60.2,30.06,SSW,199,3.0,6.0,87,0.00,,,0.00,Wunderground v.1.13,2013-03-06 02:02:00,
2013-03-05 21:08:00,64.1,60.2,30.06,SSW,209,4.0,4.0,87,0.00,,,0.00,Wunderground v.1.13,2013-03-06 02:08:00,
2013-03-05 21:14:00,64.3,60.3,30.06,SSW,202,4.0,5.0,87,0.00,,,0.00,Wunderground v.1.13,2013-03-06 02:14:00,
2013-03-05 21:20:00,64.5,60.5,30.06,SSW,200,4.0,12.0,87,0.00,,,0.00,Wunderground v.1.13,2013-03-06 02:20:00,
2013-03-05 21:26:00,64.5,60.5,30.06,South,179,3.0,12.0,87,0.00,,,0.00,Wunderground v.1.13,2013-03-06 02:26:00,
2013-03-05 21:32:00,64.7,60.7,30.06,SSW,207,2.0,12.0,87,0.00,,,0.00,Wunderground v.1.13,2013-03-06 02:32:00,
2013-03-05 21:38:00,64.7,60.7,30.06,SSW,205,2.0,12.0,87,0.00,,,0.00,Wunderground v.1.13,2013-03-06 02:38:00,
2013-03-05 21:44:00,64.8,60.8,30.06,SSW,204,2.0,12.0,87,0.00,,,0.00,Wunderground v.1.13,2013-03-06 02:44:00,
2013-03-05 21:50:00,64.8,60.8,30.06,SSW,199,2.0,6.0,87,0.00,,,0.00,Wunderground v.1.13,2013-03-06 02:50:00,
2013-03-05 21:56:00,64.9,61.3,30.06,SSW,204,2.0,12.0,88,0.00,,,0.00,Wunderground v.1.13,2013-03-06 02:56:00,
2013-03-05 22:02:00,64.9,61.3,30.06,SSW,206,2.0,12.0,88,0.00,,,0.00,Wunderground v.1.13,2013-03-06 03:02:00,
2013-03-05 22:08:00,65.0,61.4,30.06,SSW,211,2.0,2.0,88,0.00,,,0.00,Wunderground v.1.13,2013-03-06 03:08:00,
2013-03-05 22:14:00,65.0,61.4,30.06,SW,219,2.0,4.0,88,0.00,,,0.00,Wunderground v.1.13,2013-03-06 03:14:00,
2013-03-05 22:20:00,65.0,61.4,30.06,SSW,207,2.0,11.0,88,0.00,,,0.00,Wunderground v.1.13,2013-03-06 03:20:00,
2013-03-05 22:26:00,65.1,61.5,30.06,SSW,196,2.0,11.0,88,0.00,,,0.00,Wunderground v.1.13,2013-03-06 03:26:00,
2013-03-05 22:32:00,65.2,61.6,30.06,SSW,207,3.0,11.0,88,0.00,,,0.00,Wunderground v.1.13,2013-03-06 03:32:00,
2013-03-05 22:38:00,65.3,62.0,30.06,SSW,211,2.0,11.0,89,0.00,,,0.00,Wunderground v.1.13,2013-03-06 03:38:00,
2013-03-05 22:44:00,65.4,62.1,30.06,SSW,200,2.0,11.0,89,0.00,,,0.00,Wunderground v.1.13,2013-03-06 03:44:00,
2013-03-05 22:50:00,65.6,61.9,30.06,SSW,200,1.0,11.0,88,0.00,,,0.00,Wunderground v.1.13,2013-03-06 03:50:00,
2013-03-05 22:56:00,65.7,62.0,30.06,SW,225,2.0,11.0,88,0.00,,,0.00,Wunderground v.1.13,2013-03-06 03:56:00,
2013-03-05 23:02:00,65.7,62.0,30.05,SSW,199,2.0,6.0,88,0.00,,,0.00,Wunderground v.1.13,2013-03-06 04:02:00,
2013-03-05 23:08:00,65.7,62.0,30.05,SW,217,1.0,3.0,88,0.00,,,0.00,Wunderground v.1.13,2013-03-06 04:08:00,
2013-03-05 23:14:00,65.7,62.0,30.05,SSW,201,2.0,6.0,88,0.00,,,0.00,Wunderground v.1.13,2013-03-06 04:14:00,
2013-03-05 23:20:00,65.7,62.0,30.05,SSW,209,2.0,11.0,88,0.00,,,0.00,Wunderground v.1.13,2013-03-06 04:20:00,
2013-03-05 23:26:00,65.6,61.9,30.05,SSW,193,2.0,11.0,88,0.00,,,0.00,Wunderground v.1.13,2013-03-06 04:26:00,
2013-03-05 23:32:00,65.6,61.9,30.05,SSW,210,3.0,11.0,88,0.00,,,0.00,Wunderground v.1.13,2013-03-06 04:32:00,
2013-03-05 23:38:00,65.6,61.9,30.05,SW,214,2.0,11.0,88,0.00,,,0.00,Wunderground v.1.13,2013-03-06 04:38:00,
2013-03-05 23:44:00,65.7,62.0,30.05,SW,220,1.0,11.0,88,0.00,,,0.00,Wunderground v.1.13,2013-03-06 04:44:00,
2013-03-05 23:50:00,65.6,61.9,30.05,SW,236,1.0,11.0,88,0.00,,,0.00,Wunderground v.1.13,2013-03-06 04:50:00,
2013-03-05 23:56:00,65.6,61.9,30.05,SSW,210,1.0,11.0,88,0.00,,,0.00,Wunderground v.1.13,2013-03-06 04:56:00,